Starlink 30070

operational
NORAD ID: 56707 Int'l Des: 2023-067 Owner: SPXS Country: US Constellation: starlink
LEOCIRCULAR

Über Starlink 30070

Beschreibung wird geladen...

Live-Position

3D-Globus wird geladen...

Nächste Überflüge

Höhenverlauf

Altitude vs Time

uPlot chart will show altitude changes over time

Zweizeiliger Elementsatz

1 56707U 23067V 25351.34372482 .00000909 00000-0 82328-4 0 9997
2 56707 43.0043 1.8571 0001340 276.3264 83.7425 15.02538342143270
Epoch: 17. Dez. 2025 • Age: 10 hours

Aktueller Status

Höhe 558.9 km
Geschwindigkeit 7.58 km/s
Subsatellitenpunkt -1.77°S, 4.04°E
Startdatum 19. Mai 2023
Alter 2.5 years
Typ internet

Technische Details

Klassifizierung Payload
Masse 730.00 kg
Trockenmasse 700.00 kg
Gesamtmasse 730.00 kg
Länge 0.30 m
Durchmesser 4.10 m
Spannweite 29.00 m
Form Box + pan
Hersteller SPXS
Bus-Typ Starlink V2M
Phasenstatus In Orbit
Besitzer/Staat SPXS/US

Große Konstellationen

Loading constellations...